Time,TemperatureF,DewpointF,PressureIn,WindDirection,WindDirectionDegrees,WindSpeedMPH,WindSpeedGustMPH,Humidity,HourlyPrecipIn,Conditions,Clouds,dailyrainin,SoftwareType,DateUTC
2013-02-26 00:02:00,33.0,30.0,-100.00,ENE,65,12.0,17.0,87,0.00,,,-99.99,,2013-02-26 06:02:00,
2013-02-26 00:11:00,33.0,30.0,-100.00,East,80,11.0,17.0,87,0.00,,,-99.99,,2013-02-26 06:11:00,
2013-02-26 00:21:00,33.0,30.0,-100.00,East,80,11.0,17.0,87,0.00,,,-99.99,,2013-02-26 06:21:00,
2013-02-26 00:32:00,33.0,30.0,-100.00,NE,55,9.0,16.0,87,0.00,,,-99.99,,2013-02-26 06:32:00,
2013-02-26 00:41:00,33.0,30.0,-100.00,NE,55,9.0,16.0,87,0.00,,,-99.99,,2013-02-26 06:41:00,
2013-02-26 00:51:00,33.0,30.0,-100.00,ENE,60,11.0,16.0,87,0.00,,,-99.99,,2013-02-26 06:51:00,
2013-02-26 01:01:00,33.0,30.0,-100.00,ENE,60,11.0,16.0,87,0.00,,,-99.99,,2013-02-26 07:01:00,
2013-02-26 01:11:00,33.0,30.0,-100.00,ENE,65,12.0,16.0,88,0.00,,,-99.99,,2013-02-26 07:11:00,
2013-02-26 01:22:00,33.0,30.0,-100.00,ENE,60,12.0,16.0,87,0.00,,,-99.99,,2013-02-26 07:22:00,
2013-02-26 01:32:00,33.0,30.0,-100.00,ENE,60,12.0,16.0,87,0.00,,,-99.99,,2013-02-26 07:32:00,
2013-02-26 01:42:00,33.0,30.0,-100.00,NE,55,11.0,16.0,87,0.00,,,-99.99,,2013-02-26 07:42:00,
2013-02-26 01:51:00,33.0,30.0,-100.00,NE,55,12.0,17.0,87,0.00,,,-99.99,,2013-02-26 07:51:00,
2013-02-26 02:02:00,33.0,30.0,-100.00,NE,55,12.0,17.0,88,0.00,,,-99.99,,2013-02-26 08:02:00,
2013-02-26 02:11:00,33.0,30.0,-100.00,ENE,65,11.0,21.0,88,0.00,,,-99.99,,2013-02-26 08:11:00,
2013-02-26 02:21:00,33.0,30.0,-100.00,ENE,65,14.0,19.0,87,0.00,,,-99.99,,2013-02-26 08:21:00,
2013-02-26 02:31:00,33.0,30.0,-100.00,ENE,60,11.0,20.0,87,0.00,,,-99.99,,2013-02-26 08:31:00,
2013-02-26 02:42:00,33.0,30.0,-100.00,NE,50,14.0,19.0,87,0.00,,,-99.99,,2013-02-26 08:42:00,
2013-02-26 02:52:00,33.0,30.0,-100.00,NE,50,14.0,19.0,88,0.00,,,-99.99,,2013-02-26 08:52:00,
2013-02-26 03:01:00,33.0,30.0,-100.00,NE,50,14.0,19.0,88,0.00,,,-99.99,,2013-02-26 09:01:00,
2013-02-26 03:11:00,33.0,30.0,-100.00,NE,50,15.0,20.0,89,0.00,,,-99.99,,2013-02-26 09:11:00,
2013-02-26 03:21:00,33.0,30.0,-100.00,NE,45,14.0,20.0,89,0.00,,,-99.99,,2013-02-26 09:21:00,
2013-02-26 03:31:00,33.0,30.0,-100.00,NE,55,14.0,21.0,90,0.00,,,-99.99,,2013-02-26 09:31:00,
2013-02-26 03:43:00,33.0,30.0,-100.00,NE,55,17.0,23.0,90,0.00,,,-99.99,,2013-02-26 09:43:00,
2013-02-26 03:51:00,33.0,30.0,-100.00,NE,50,16.0,23.0,90,0.00,,,-99.99,,2013-02-26 09:51:00,
2013-02-26 04:01:00,33.0,30.0,-100.00,NE,45,17.0,26.0,89,0.00,,,-99.99,,2013-02-26 10:01:00,
2013-02-26 04:11:00,33.0,30.0,-100.00,NE,45,17.0,26.0,89,0.00,,,-99.99,,2013-02-26 10:11:00,
2013-02-26 04:21:00,33.0,30.0,-100.00,NE,45,17.0,26.0,89,0.00,,,-99.99,,2013-02-26 10:21:00,
2013-02-26 04:31:00,33.0,30.0,-100.00,NE,50,18.0,26.0,89,0.00,,,-99.99,,2013-02-26 10:31:00,
2013-02-26 04:42:00,33.0,30.0,-100.00,NE,50,18.0,26.0,89,0.00,,,-99.99,,2013-02-26 10:42:00,
2013-02-26 04:52:00,33.0,30.0,-100.00,NE,50,18.0,28.0,88,0.00,,,-99.99,,2013-02-26 10:52:00,
2013-02-26 05:01:00,33.0,30.0,-100.00,NE,50,18.0,28.0,88,0.00,,,-99.99,,2013-02-26 11:01:00,
2013-02-26 05:11:00,33.0,30.0,-100.00,NE,45,16.0,24.0,88,0.00,,,-99.99,,2013-02-26 11:11:00,
2013-02-26 05:22:00,33.0,30.0,-100.00,NE,45,16.0,24.0,88,0.00,,,-99.99,,2013-02-26 11:22:00,
2013-02-26 05:32:00,33.0,30.0,-100.00,NE,50,16.0,29.0,87,0.00,,,-99.99,,2013-02-26 11:32:00,
2013-02-26 05:42:00,33.0,30.0,-100.00,NE,55,16.0,29.0,87,0.00,,,-99.99,,2013-02-26 11:42:00,
2013-02-26 05:52:00,33.0,30.0,-100.00,NE,55,16.0,29.0,87,0.00,,,-99.99,,2013-02-26 11:52:00,
2013-02-26 06:01:00,33.0,30.0,-100.00,NE,40,19.0,24.0,87,0.00,,,-99.99,,2013-02-26 12:01:00,
2013-02-26 06:11:00,33.0,30.0,-100.00,NE,40,19.0,24.0,87,0.00,,,-99.99,,2013-02-26 12:11:00,
2013-02-26 06:22:00,34.0,30.0,-100.00,NE,55,19.0,26.0,87,0.00,,,-99.99,,2013-02-26 12:22:00,
2013-02-26 06:32:00,34.0,30.0,-100.00,NE,50,14.0,26.0,87,0.00,,,-99.99,,2013-02-26 12:32:00,
2013-02-26 06:42:00,34.0,30.0,-100.00,NE,50,14.0,26.0,87,0.00,,,-99.99,,2013-02-26 12:42:00,
2013-02-26 06:53:00,34.0,30.0,-100.00,NE,50,14.0,27.0,87,0.00,,,-99.99,,2013-02-26 12:53:00,
2013-02-26 07:01:00,34.0,30.0,-100.00,NE,45,17.0,27.0,87,0.00,,,-99.99,,2013-02-26 13:01:00,
2013-02-26 07:11:00,34.0,30.0,-100.00,NE,50,18.0,27.0,87,0.00,,,-99.99,,2013-02-26 13:11:00,
2013-02-26 07:21:00,34.0,30.0,-100.00,NE,50,18.0,27.0,87,0.00,,,-99.99,,2013-02-26 13:21:00,
2013-02-26 07:32:00,34.0,30.0,-100.00,NE,55,18.0,29.0,86,0.00,,,-99.99,,2013-02-26 13:32:00,
2013-02-26 07:42:00,34.0,30.0,-100.00,NE,55,18.0,29.0,86,0.00,,,-99.99,,2013-02-26 13:42:00,
2013-02-26 07:51:00,34.0,30.0,-100.00,NE,55,21.0,29.0,85,0.00,,,-99.99,,2013-02-26 13:51:00,
2013-02-26 08:01:00,34.0,30.0,-100.00,NE,55,21.0,29.0,85,0.00,,,-99.99,,2013-02-26 14:01:00,
2013-02-26 08:11:00,34.0,30.0,-100.00,NE,55,17.0,24.0,85,0.00,,,-99.99,,2013-02-26 14:11:00,
2013-02-26 08:21:00,34.0,30.0,-100.00,NE,55,20.0,25.0,85,0.00,,,-99.99,,2013-02-26 14:21:00,
2013-02-26 08:32:00,34.0,30.0,-100.00,NE,55,20.0,25.0,85,0.00,,,-99.99,,2013-02-26 14:32:00,
2013-02-26 08:42:00,34.0,30.0,-100.00,NE,55,20.0,25.0,85,0.00,,,-99.99,,2013-02-26 14:42:00,
2013-02-26 08:52:00,34.0,30.0,-100.00,NE,55,20.0,29.0,84,0.00,,,-99.99,,2013-02-26 14:52:00,
2013-02-26 09:02:00,34.0,30.0,-100.00,NE,55,20.0,29.0,84,0.00,,,-99.99,,2013-02-26 15:02:00,
2013-02-26 09:11:00,34.0,30.0,-100.00,NE,45,15.0,28.0,83,0.00,,,-99.99,,2013-02-26 15:11:00,
2013-02-26 09:22:00,34.0,30.0,-100.00,NE,45,15.0,28.0,83,0.00,,,-99.99,,2013-02-26 15:22:00,
2013-02-26 09:32:00,35.0,29.0,-100.00,NE,40,22.0,36.0,79,0.00,,,-99.99,,2013-02-26 15:32:00,
2013-02-26 09:41:00,35.0,29.0,-100.00,NE,40,22.0,36.0,79,0.00,,,-99.99,,2013-02-26 15:41:00,
2013-02-26 09:51:00,35.0,29.0,-100.00,NE,40,19.0,24.0,79,0.00,,,-99.99,,2013-02-26 15:51:00,
2013-02-26 10:01:00,35.0,29.0,-100.00,NE,40,19.0,24.0,79,0.00,,,-99.99,,2013-02-26 16:01:00,
2013-02-26 10:11:00,35.0,29.0,-100.00,NE,50,17.0,29.0,77,0.00,,,-99.99,,2013-02-26 16:11:00,
2013-02-26 10:22:00,35.0,29.0,-100.00,NE,50,17.0,29.0,77,0.00,,,-99.99,,2013-02-26 16:22:00,
2013-02-26 10:32:00,35.0,29.0,-100.00,NNE,30,15.0,27.0,77,0.00,,,-99.99,,2013-02-26 16:32:00,
2013-02-26 10:42:00,35.0,29.0,-100.00,NNE,30,15.0,27.0,77,0.00,,,-99.99,,2013-02-26 16:42:00,
2013-02-26 10:51:00,35.0,29.0,-100.00,NNE,30,15.0,22.0,77,0.00,,,-99.99,,2013-02-26 16:51:00,
2013-02-26 11:01:00,35.0,29.0,-100.00,NNE,30,15.0,22.0,77,0.00,,,-99.99,,2013-02-26 17:01:00,
2013-02-26 11:11:00,35.0,29.0,-100.00,NE,40,16.0,28.0,77,0.00,,,-99.99,,2013-02-26 17:11:00,
2013-02-26 11:21:00,35.0,28.0,-100.00,NE,50,18.0,26.0,77,0.00,,,-99.99,,2013-02-26 17:21:00,
2013-02-26 11:32:00,35.0,29.0,-100.00,NE,45,15.0,23.0,78,0.00,,,-99.99,,2013-02-26 17:32:00,
2013-02-26 11:41:00,35.0,29.0,-100.00,NE,45,15.0,23.0,78,0.00,,,-99.99,,2013-02-26 17:41:00,
2013-02-26 11:52:00,35.0,29.0,-100.00,NE,45,15.0,23.0,78,0.00,,,-99.99,,2013-02-26 17:52:00,
2013-02-26 12:01:00,35.0,29.0,-100.00,NE,45,15.0,23.0,78,0.00,,,-99.99,,2013-02-26 18:01:00,
2013-02-26 12:12:00,35.0,29.0,-100.00,NE,35,17.0,26.0,77,0.00,,,-99.99,,2013-02-26 18:12:00,
2013-02-26 12:21:00,35.0,29.0,-100.00,NE,35,17.0,26.0,77,0.00,,,-99.99,,2013-02-26 18:21:00,
2013-02-26 12:32:00,35.0,29.0,-100.00,NE,35,17.0,26.0,77,0.00,,,-99.99,,2013-02-26 18:32:00,
2013-02-26 12:42:00,35.0,29.0,-100.00,NE,35,17.0,26.0,77,0.00,,,-99.99,,2013-02-26 18:42:00,
2013-02-26 12:52:00,32.0,30.0,-100.00,NE,40,21.0,32.0,91,0.10,,,-99.99,,2013-02-26 18:52:00,
2013-02-26 13:01:00,32.0,30.0,-100.00,NNE,30,20.0,32.0,92,0.10,,,-99.99,,2013-02-26 19:01:00,
2013-02-26 13:11:00,31.0,31.0,-100.00,NE,35,18.0,30.0,96,0.24,,,-99.99,,2013-02-26 19:11:00,
2013-02-26 13:22:00,31.0,31.0,-100.00,NE,35,18.0,30.0,96,0.24,,,-99.99,,2013-02-26 19:22:00,
2013-02-26 13:32:00,31.0,31.0,-100.00,NNE,30,22.0,29.0,98,0.08,,,-99.99,,2013-02-26 19:32:00,
2013-02-26 13:41:00,31.0,31.0,-100.00,NNE,30,22.0,34.0,99,0.13,,,-99.99,,2013-02-26 19:41:00,
2013-02-26 13:51:00,31.0,31.0,-100.00,NNE,25,18.0,29.0,99,0.18,,,-99.99,,2013-02-26 19:51:00,
2013-02-26 14:01:00,31.0,31.0,-100.00,NNE,25,18.0,29.0,99,0.18,,,-99.99,,2013-02-26 20:01:00,
2013-02-26 14:11:00,31.0,31.0,-100.00,NE,35,16.0,26.0,99,0.16,,,-99.99,,2013-02-26 20:11:00,
2013-02-26 14:21:00,31.0,31.0,-100.00,NE,35,20.0,27.0,99,0.14,,,-99.99,,2013-02-26 20:21:00,
2013-02-26 14:32:00,31.0,31.0,-100.00,NE,35,27.0,36.0,99,0.25,,,-99.99,,2013-02-26 20:32:00,
2013-02-26 14:41:00,31.0,31.0,-100.00,NE,35,27.0,36.0,99,0.25,,,-99.99,,2013-02-26 20:41:00,
2013-02-26 14:51:00,30.0,30.0,-100.00,NNE,25,19.0,30.0,99,0.33,,,-99.99,,2013-02-26 20:51:00,
2013-02-26 15:01:00,30.0,30.0,-100.00,NNE,25,19.0,30.0,99,0.33,,,-99.99,,2013-02-26 21:01:00,
2013-02-26 15:11:00,30.0,30.0,-100.00,NNE,30,17.0,24.0,99,0.13,,,-99.99,,2013-02-26 21:11:00,
2013-02-26 15:21:00,31.0,31.0,-100.00,NNE,20,14.0,26.0,99,0.04,,,-99.99,,2013-02-26 21:21:00,
2013-02-26 15:31:00,31.0,31.0,-100.00,NNE,30,18.0,24.0,99,0.04,,,-99.99,,2013-02-26 21:31:00,
2013-02-26 15:41:00,31.0,31.0,-100.00,NNE,30,18.0,24.0,99,0.04,,,-99.99,,2013-02-26 21:41:00,
2013-02-26 15:51:00,31.0,31.0,-100.00,NNE,30,16.0,23.0,99,0.03,,,-99.99,,2013-02-26 21:51:00,
2013-02-26 16:01:00,30.0,30.0,-100.00,NNE,30,17.0,27.0,99,0.03,,,-99.99,,2013-02-26 22:01:00,
2013-02-26 16:11:00,30.0,30.0,-100.00,NNE,25,19.0,26.0,99,0.00,,,-99.99,,2013-02-26 22:11:00,
2013-02-26 16:21:00,30.0,30.0,-100.00,NNE,25,19.0,26.0,99,0.00,,,-99.99,,2013-02-26 22:21:00,
2013-02-26 16:31:00,30.0,30.0,-100.00,NNE,15,15.0,23.0,99,0.00,,,-99.99,,2013-02-26 22:31:00,
2013-02-26 16:41:00,30.0,30.0,-100.00,NNE,15,15.0,23.0,99,0.00,,,-99.99,,2013-02-26 22:41:00,
2013-02-26 17:01:00,30.0,30.0,-100.00,NNE,30,18.0,26.0,99,0.00,,,-99.99,,2013-02-26 23:01:00,
2013-02-26 17:11:00,30.0,30.0,-100.00,NNE,15,18.0,27.0,99,0.03,,,-99.99,,2013-02-26 23:11:00,
2013-02-26 17:21:00,30.0,30.0,-100.00,NNE,15,18.0,27.0,99,0.03,,,-99.99,,2013-02-26 23:21:00,
2013-02-26 17:31:00,31.0,31.0,-100.00,NNE,15,15.0,24.0,99,0.00,,,-99.99,,2013-02-26 23:31:00,
2013-02-26 17:41:00,31.0,31.0,-100.00,NNE,15,15.0,24.0,99,0.00,,,-99.99,,2013-02-26 23:41:00,
2013-02-26 17:52:00,30.0,30.0,-100.00,North,10,15.0,23.0,99,0.01,,,-99.99,,2013-02-26 23:52:00,
2013-02-26 18:01:00,30.0,30.0,-100.00,North,10,15.0,23.0,99,0.01,,,-99.99,,2013-02-27 00:01:00,
2013-02-26 18:11:00,30.0,30.0,-100.00,NNE,25,15.0,24.0,99,0.04,,,-99.99,,2013-02-27 00:11:00,
2013-02-26 18:21:00,30.0,30.0,-100.00,North,5,17.0,24.0,99,0.01,,,-99.99,,2013-02-27 00:21:00,
2013-02-26 18:31:00,30.0,30.0,-100.00,North,5,17.0,24.0,99,0.03,,,-99.99,,2013-02-27 00:31:00,
2013-02-26 18:41:00,30.0,30.0,-100.00,North,5,17.0,24.0,99,0.03,,,-99.99,,2013-02-27 00:41:00,
2013-02-26 18:51:00,30.0,30.0,-100.00,NNE,15,17.0,22.0,99,0.01,,,-99.99,,2013-02-27 00:51:00,
2013-02-26 19:01:00,30.0,30.0,-100.00,NNE,15,17.0,22.0,99,0.01,,,-99.99,,2013-02-27 01:01:00,
2013-02-26 19:11:00,30.0,30.0,-100.00,North,5,12.0,24.0,99,0.01,,,-99.99,,2013-02-27 01:11:00,
2013-02-26 19:22:00,30.0,30.0,-100.00,NNE,20,16.0,22.0,99,0.01,,,-99.99,,2013-02-27 01:22:00,
2013-02-26 19:32:00,30.0,30.0,-100.00,North,0,18.0,23.0,99,0.01,,,-99.99,,2013-02-27 01:32:00,
2013-02-26 19:42:00,30.0,30.0,-100.00,North,0,18.0,23.0,99,0.01,,,-99.99,,2013-02-27 01:42:00,
2013-02-26 19:51:00,30.0,30.0,-100.00,North,5,18.0,22.0,99,0.03,,,-99.99,,2013-02-27 01:51:00,
2013-02-26 20:01:00,30.0,30.0,-100.00,North,5,18.0,22.0,99,0.03,,,-99.99,,2013-02-27 02:01:00,
2013-02-26 20:14:00,30.0,30.0,-100.00,NNE,15,16.0,24.0,99,0.06,,,-99.99,,2013-02-27 02:14:00,
2013-02-26 20:23:00,30.0,30.0,-100.00,NNE,15,16.0,24.0,99,0.06,,,-99.99,,2013-02-27 02:23:00,
2013-02-26 20:32:00,30.0,30.0,-100.00,North,10,16.0,26.0,99,0.04,,,-99.99,,2013-02-27 02:32:00,
2013-02-26 20:42:00,30.0,30.0,-100.00,North,10,15.0,22.0,99,0.03,,,-99.99,,2013-02-27 02:42:00,
2013-02-26 20:52:00,30.0,30.0,-100.00,North,10,16.0,21.0,99,0.03,,,-99.99,,2013-02-27 02:52:00,
2013-02-26 21:02:00,30.0,30.0,-100.00,North,5,16.0,22.0,99,0.03,,,-99.99,,2013-02-27 03:02:00,
2013-02-26 21:11:00,30.0,30.0,-100.00,North,5,15.0,23.0,99,0.03,,,-99.99,,2013-02-27 03:11:00,
2013-02-26 21:21:00,30.0,30.0,-100.00,North,5,12.0,25.0,99,0.01,,,-99.99,,2013-02-27 03:21:00,
2013-02-26 21:32:00,30.0,30.0,-100.00,North,5,16.0,23.0,99,0.00,,,-99.99,,2013-02-27 03:32:00,
2013-02-26 21:42:00,30.0,30.0,-100.00,North,0,14.0,19.0,99,0.00,,,-99.99,,2013-02-27 03:42:00,
2013-02-26 21:51:00,30.0,30.0,-100.00,North,0,14.0,20.0,99,0.00,,,-99.99,,2013-02-27 03:51:00,
2013-02-26 22:01:00,30.0,30.0,-100.00,North,0,14.0,20.0,99,0.00,,,-99.99,,2013-02-27 04:01:00,
2013-02-26 22:11:00,30.0,30.0,-100.00,North,0,14.0,20.0,99,0.00,,,-99.99,,2013-02-27 04:11:00,
2013-02-26 22:21:00,30.0,30.0,-100.00,North,0,14.0,19.0,99,0.03,,,-99.99,,2013-02-27 04:21:00,
2013-02-26 22:32:00,30.0,30.0,-100.00,North,0,14.0,19.0,99,0.01,,,-99.99,,2013-02-27 04:32:00,
2013-02-26 22:41:00,30.0,30.0,-100.00,North,0,14.0,19.0,99,0.01,,,-99.99,,2013-02-27 04:41:00,
2013-02-26 22:52:00,30.0,30.0,-100.00,North,0,15.0,19.0,99,0.00,,,-99.99,,2013-02-27 04:52:00,
2013-02-26 23:01:00,30.0,30.0,-100.00,North,0,15.0,19.0,99,0.00,,,-99.99,,2013-02-27 05:01:00,
2013-02-26 23:11:00,30.0,30.0,-100.00,North,355,12.0,18.0,99,0.00,,,-99.99,,2013-02-27 05:11:00,
2013-02-26 23:22:00,30.0,30.0,-100.00,North,350,13.0,18.0,99,0.00,,,-99.99,,2013-02-27 05:22:00,
2013-02-26 23:32:00,30.0,30.0,-100.00,North,350,12.0,20.0,99,0.01,,,-99.99,,2013-02-27 05:32:00,
2013-02-26 23:42:00,30.0,30.0,-100.00,North,350,12.0,20.0,99,0.01,,,-99.99,,2013-02-27 05:42:00,
2013-02-26 23:52:00,30.0,30.0,-100.00,North,0,14.0,17.0,99,0.00,,,-99.99,,2013-02-27 05:52:00,